Home > Weather > Beckum > Past weeks

Flag for Germany Weather for the Past 2 Weeks in Beckum, North Rhine-Westphalia, Germany

Now
45 °F

Light rain. Passing clouds.


Feels Like: 36 °F
Forecast: 39 / 44 °F
Wind: 22 mph from South

Location: Dortmund / Wickede

Current Time: Feb 8, 2016 at 7:15:13 AM

Latest Report: Feb 8, 2016 at 6:50 AM


Visibility: N/A

Pressure: 29.30 "Hg

Humidity: 76%

Dew point: 37 °F

Location of BeckumLocation

Historic Weather in Beckum — Graph

°F

Beckum Temperature Yesterday

Maximum temperature yesterday: 52 °F (at 8:50 AM)
Minimum temperature yesterday: 43 °F (at 8:50 PM)
Average temperature yesterday: 47 °F

High & Low Weather Summary for the Past Weeks

 TemperatureHumidityPressure
High54 °F (Jan 25, 3:20 PM)94% (Feb 1, 7:20 AM)30.45 "Hg (Feb 1, 7:20 AM)
Low36 °F (Jan 28, 7:50 PM)53% (Jan 28, 2:20 PM)29.33 "Hg (Feb 8, 5:20 AM)
Average45 °F76%30.01 "Hg
* Reported Jan 24 6:20 AM — Feb 8 6:20 AM, Beckum, Weather by CustomWeather, © 2016

Note: Actual official high and low records may vary slightly from our data, if they occured in-between our weather recording intervals... More about our weather records

Advertising

Beckum Weather History for the Previous 24 Hours

 ConditionsComfort  
Time TempWeatherWind HumidityBarometerVisibility
6:20 AM
Mon, Feb 8
45 °FLight rain. Passing clouds.26 mph71%29.33 "HgN/A
5:50 AM46 °FLight rain. Passing clouds.26 mph62%29.33 "HgN/A
5:20 AM45 °FPassing clouds.23 mph66%29.33 "HgN/A
10:50 PM
Sun, Feb 7
43 °FClear.17 mph61%29.59 "Hg10 mi
10:20 PM43 °FClear.17 mph61%29.59 "Hg10 mi
9:50 PM43 °FClear.16 mph61%29.62 "Hg10 mi
9:20 PM43 °FClear.15 mph66%29.62 "Hg10 mi
8:50 PM43 °FClear.13 mph66%29.62 "Hg10 mi
8:20 PM45 °FClear.14 mph57%29.62 "Hg10 mi
7:50 PM45 °FClear.18 mph57%29.62 "Hg10 mi
7:20 PM45 °FClear.15 mph61%29.62 "Hg10 mi
6:50 PM45 °FClear.17 mph61%29.62 "Hg10 mi
6:20 PM45 °FClear.17 mph61%29.59 "Hg10 mi
5:50 PM46 °FClear.16 mph57%29.59 "Hg10 mi
5:20 PM45 °FSunny.18 mph61%29.59 "Hg10 mi
4:50 PM46 °FSunny.20 mph57%29.59 "Hg10 mi
4:20 PM46 °FScattered clouds.15 mph62%29.56 "HgN/A
3:50 PM46 °FSunny.18 mph62%29.56 "Hg10 mi
3:20 PM46 °FPartly sunny.14 mph62%29.56 "HgN/A
2:50 PM46 °FPartly sunny.18 mph62%29.56 "HgN/A
2:20 PM46 °FPartly sunny.17 mph66%29.56 "HgN/A
1:50 PM48 °FPartly sunny.18 mph66%29.53 "HgN/A
1:20 PM48 °FPartly sunny.18 mph66%29.53 "HgN/A
12:50 PM48 °FSunny.15 mph66%29.53 "Hg10 mi
12:20 PM46 °FScattered clouds.16 mph71%29.53 "HgN/A
11:50 AM46 °FPartly sunny.17 mph71%29.53 "HgN/A
11:20 AM48 °FPartly sunny.15 mph71%29.50 "HgN/A
10:50 AM46 °FPartly sunny.16 mph76%29.50 "HgN/A
10:20 AM50 °FSprinkles. Partly sunny.22 mph67%29.47 "HgN/A
9:50 AM52 °FPartly sunny.21 mph62%29.45 "HgN/A
9:20 AM52 °FScattered clouds.20 mph58%29.45 "HgN/A
8:50 AM52 °FPassing clouds.22 mph58%29.45 "HgN/A
8:20 AM50 °FLight rain. Passing clouds.17 mph62%29.45 "HgN/A
7:50 AM50 °FLight rain. Clear.15 mph62%29.45 "HgN/A
7:20 AM50 °FSprinkles. Clear.16 mph58%29.45 "HgN/A
Weather by CustomWeather, © 2016

See weather overviewHow to use our weather pages